Location: Eaton
(41.3139°N, 82.0207°W)
Time: 15:40:37
(UTC+00:00)

ALOS 2 - Pass Details

Date: 17 June 2021
Orbit: 630 x 632 km, 97.9° (Epoch: 02 August)

Event Time Altitude Azimuth Distance (km) Brightness Sun altitude
Exits shadow 04:41:38 57° 77° (ENE) 747 2.9 -24.4°
Maximum altitude 04:41:41 57° 74° (ENE) 747 2.9 -24.4°
Drops below altitude 10° 04:46:01 10° 356° (N) 2,022 6.2 -24.5°
Sets 04:48:14 0° 352° (N) 2,935 7.4 -24.6°
